Location: Janesville
(42.6830°N, 89.0190°W)
Time: 05:26:10
(UTC-05:00)

HST - Visible Passes

Search period start: 02 October 2014 00:00
Search period end: 12 October 2014 00:00
Orbit: 547 x 551 km, 28.5° (Epoch: 01 October)

Date Brightness Start Highest point End Pass type
(mag) Time Alt. Az. Time Alt. Az. Time Alt. Az.
07 Oct 3.4 06:33:01 10° SSW 06:34:11 11° S 06:35:22 10° SSE visible
08 Oct 3.3 06:25:32 10° SSW 06:26:53 11° S 06:28:13 10° SSE visible
09 Oct 3.2 06:18:14 10° SSW 06:19:34 11° S 06:20:54 10° SSE visible
10 Oct 3.2 06:11:06 10° SSW 06:12:14 11° S 06:13:22 10° S visible
11 Oct 3.3 06:04:21 10° SSW 06:04:54 10° S 06:05:27 10° S visible
